User: anonymous   Login
Location: Chagrin Falls Park
(41.4139°N, 81.3865°W)
Time: 14:18:08
(UTC+00:00)
Language:

STARLINK-2732 - Orbit

View from above orbital plane
View from above orbital plane
View from above satellite
View from above satellite

Ground track
Ground track

The orbit data is extracted from the following two-line orbital elements,

1 48646C 21044J   21291.08666248  .00027113  00000-0  18165-2 0  2916
2 48646  53.0526 120.4599 0001928  71.7131 232.2834 15.06372065    11
Epoch (UTC): 18 October 2021 02:04:47
Eccentricity: 0.0001928
inclination: 53.0526°
perigee height: 546 km
apogee height: 548 km
right ascension of ascending node: 120.4599°
argument of perigee: 71.7131°
revolutions per day: 15.06372065
mean anomaly at epoch: 232.2834°
orbit number at epoch: 1

The dashed part of the orbit path shows where the satellite is in the earth's shadow,  

DLR